This demonstration page uses our WeatherBlox Daily Observations layout. Learn more.

Left ArrowRight Arrow

36.19886, -115.1175

Hourly Observations for February 5, 2021

Temp ( °F °C ) Dew Point ( °F °C ) Humidity (%) Winds ( mph kmh ) Pressure ( in mb ) Visibility ( mi km ) Precip ( " mm )
12:53 am 00:53 Clear 49 9.4 14 -10 25 25 NNW 6 9 30.21 1023 10 16 N/A
1:53 am 01:53 Clear 48 8.9 15 -9.4 27 27 W 5 7 30.21 1023 10 16 N/A
2:53 am 02:53 Clear 48 8.9 15 -9.4 27 27 WNW 8 13 30.20 1023 10 16 N/A
3:53 am 03:53 Clear 47 8.3 16 -8.9 29 29 NW 10 17 30.18 1022 10 16 N/A
4:53 am 04:53 Clear 47 8.3 16 -8.9 29 29 NNW 10 17 30.18 1022 10 16 N/A
5:53 am 05:53 Clear 46 7.8 16 -8.9 30 30 W 7 11 30.17 1022 10 16 N/A
6:53 am 06:53 Sunny 47 8.3 17 -8.3 30 30 NW 13 20 30.17 1022 10 16 N/A
7:53 am 07:53 Sunny 48 8.9 18 -7.8 30 30 N 3 6 30.18 1022 10 16 N/A
8:53 am 08:53 Sunny 53 11.7 17 -8.3 24 24 NW 14 22 30.16 1022 10 16 N/A
9:53 am 09:53 Sunny 54 12.2 18 -7.8 24 24 N N/A 30.17 1022 10 16 N/A
10:53 am 10:53 Sunny 58 14.4 17 -8.3 20 20 undefined N/A 30.14 1021 10 16 N/A
11:53 am 11:53 Mostly Sunny 61 16.1 17 -8.3 18 18 SW 8 13 30.07 1018 N/A N/A
12:53 pm 12:53 Sunny 65 18.3 18 -7.8 16 16 WNW 5 7 30.00 1016 10 16 N/A
1:53 pm 13:53 Sunny 68 20 18 -7.8 15 15 W 12 19 29.96 1014 10 16 N/A
2:53 pm 14:53 Sunny 68 20 18 -7.8 15 15 S 5 7 29.95 1014 10 16 N/A
3:40 pm 15:40 Sunny 65 18.3 18 -7.8 16 16 E 16 26 29.86 1011 10 16 N/A
3:53 pm 15:53 Sunny 65 18.3 18 -7.8 16 16 E 13 20 29.96 1015 10 16 N/A
4:53 pm 16:53 Sunny 62 16.7 17 -8.3 17 17 E 9 15 29.96 1015 10 16 N/A
5:53 pm 17:53 Clear 58 14.4 18 -7.8 21 21 E 3 6 29.98 1015 10 16 N/A
6:53 pm 18:53 Clear 58 14.4 18 -7.8 21 21 ESE 5 7 30.00 1016 10 16 N/A
7:53 pm 19:53 Clear 56 13.3 18 -7.8 22 22 N N/A 30.02 1017 10 16 N/A
8:53 pm 20:53 Clear 51 10.6 21 -6.1 31 31 NW 7 11 30.04 1017 10 16 N/A
9:53 pm 21:53 Clear 50 10 22 -5.6 33 33 N 5 7 30.07 1018 10 16 N/A
10:53 pm 22:53 Clear 49 9.4 21 -6.1 33 33 WNW 6 9 30.08 1019 10 16 N/A
11:53 pm 23:53 Clear 47 8.3 21 -6.1 36 36 WNW 7 11 30.10 1019 10 16 N/A

Powered by AerisWeather